• In Uzbekistan
  • List of Countries
  • For 7 days
  • Water Temperature
  • Satellite Maps
  • Weather Map
  • Weather Widgets
  • user-avatar
    Login

    Hourly Weather Baku

    Today, 26 May, Saturday

    Time Temperature Precipitation Wind Pressure Humidity
    00:00 +27°C° 0 mm 2 mps 755 mmHg 39%
    01:00 +27°C° 0 mm 2 mps 755 mmHg 41%
    02:00 +26°C° 0 mm 2 mps 754 mmHg 44%
    03:00 +26°C° 0 mm 3 mps 754 mmHg 46%
    04:00 +26°C° 0.1 mm 3 mps 754 mmHg 46%
    05:00 +26°C° 0.1 mm 3 mps 754 mmHg 46%
    06:00 +26°C° 0.1 mm 4 mps 754 mmHg 46%
    07:00 +27°C° 0 mm 4 mps 755 mmHg 45%
    08:00 +28°C° 0 mm 5 mps 755 mmHg 44%
    09:00 +29°C° 0 mm 5 mps 755 mmHg 46%
    10:00 +29°C° 0 mm 6 mps 756 mmHg 46%
    11:00 +30°C° 0 mm 6 mps 756 mmHg 46%
    12:00 +32°C° 0 mm 6 mps 756 mmHg 45%
    13:00 +30°C° 0 mm 7 mps 756 mmHg 46%
    14:00 +30°C° 0 mm 7 mps 756 mmHg 46%
    15:00 +31°C° 0 mm 8 mps 756 mmHg 47%
    16:00 +29°C° 0 mm 10 mps 757 mmHg 53%
    17:00 +28°C° 0 mm 12 mps 757 mmHg 58%
    18:00 +26°C° 0 mm 14 mps 757 mmHg 64%
    19:00 +24°C° 0 mm 15 mps 758 mmHg 66%
    20:00 +23°C° 0 mm 16 mps 759 mmHg 67%
    21:00 +22°C° 0 mm 17 mps 759 mmHg 69%
    22:00 +22°C° 0.2 mm 17 mps 760 mmHg 68%
    23:00 +22°C° 0.2 mm 17 mps 760 mmHg 66%

    Tomorrow, 27 May, Sunday

    Time Temperature Precipitation Wind Pressure Humidity
    00:00 +20°C° 0.2 mm 18 mps 761 mmHg 64%
    01:00 +20°C° 0.3 mm 17 mps 762 mmHg 62%
    02:00 +20°C° 0.3 mm 17 mps 762 mmHg 60%
    03:00 +19°C° 0.3 mm 17 mps 762 mmHg 57%
    04:00 +20°C° 0.1 mm 16 mps 763 mmHg 57%
    05:00 +20°C° 0.1 mm 16 mps 764 mmHg 57%
    06:00 +20°C° 0.1 mm 15 mps 765 mmHg 57%
    07:00 +20°C° 0 mm 14 mps 765 mmHg 57%
    08:00 +20°C° 0 mm 14 mps 766 mmHg 56%
    09:00 +20°C° 0 mm 13 mps 767 mmHg 55%
    10:00 +21°C° 0 mm 12 mps 767 mmHg 55%
    11:00 +21°C° 0 mm 12 mps 767 mmHg 55%
    12:00 +21°C° 0 mm 11 mps 768 mmHg 55%
    13:00 +21°C° 0 mm 10 mps 768 mmHg 54%
    14:00 +19°C° 0 mm 9 mps 768 mmHg 52%
    15:00 +20°C° 0 mm 8 mps 768 mmHg 51%
    16:00 +20°C° 0 mm 8 mps 768 mmHg 50%
    17:00 +20°C° 0 mm 7 mps 768 mmHg 49%
    18:00 +20°C° 0 mm 6 mps 768 mmHg 48%
    19:00 +20°C° 0 mm 5 mps 768 mmHg 47%
    20:00 +20°C° 0 mm 4 mps 768 mmHg 46%
    21:00 +20°C° 0 mm 4 mps 768 mmHg 45%
    22:00 +19°C° 0 mm 3 mps 767 mmHg 45%
    23:00 +19°C° 0 mm 2 mps 767 mmHg 45%

    Day after tomorrow, 28 May, Monday

    Time Temperature Precipitation Wind Pressure Humidity
    00:00 +20°C° 0 mm 1 mps 767 mmHg 45%
    01:00 +19°C° 0 mm 2 mps 766 mmHg 46%
    02:00 +19°C° 0 mm 2 mps 766 mmHg 46%
    03:00 +19°C° 0 mm 2 mps 765 mmHg 47%
    04:00 +19°C° 0 mm 2 mps 765 mmHg 46%
    05:00 +20°C° 0 mm 3 mps 765 mmHg 46%
    06:00 +20°C° 0 mm 4 mps 765 mmHg 46%
    07:00 +21°C° 0 mm 4 mps 764 mmHg 42%
    08:00 +22°C° 0 mm 5 mps 764 mmHg 39%
    09:00 +23°C° 0 mm 5 mps 764 mmHg 36%
    10:00 +26°C° 0 mm 5 mps 763 mmHg 34%
    11:00 +27°C° 0 mm 5 mps 763 mmHg 33%
    12:00 +28°C° 0 mm 5 mps 763 mmHg 32%
    13:00 +28°C° 0 mm 5 mps 762 mmHg 34%
    14:00 +28°C° 0 mm 6 mps 761 mmHg 35%
    15:00 +28°C° 0 mm 6 mps 761 mmHg 37%
    16:00 +27°C° 0 mm 5 mps 761 mmHg 41%
    17:00 +26°C° 0 mm 5 mps 761 mmHg 45%
    18:00 +25°C° 0 mm 4 mps 760 mmHg 49%
    19:00 +25°C° 0 mm 3 mps 761 mmHg 52%
    20:00 +25°C° 0 mm 2 mps 761 mmHg 54%
    21:00 +24°C° 0 mm 2 mps 761 mmHg 57%
    22:00 +24°C° 0 mm 1 mps 761 mmHg 58%
    23:00 +24°C° 0 mm 1 mps 761 mmHg 59%

    29 May, Tuesday

    Time Temperature Precipitation Wind Pressure Humidity
    00:00 +24°C° 0 mm 1 mps 761 mmHg 60%
    01:00 +22°C° 0 mm 3 mps 761 mmHg 61%
    02:00 +22°C° 0 mm 4 mps 761 mmHg 62%
    03:00 +22°C° 0 mm 5 mps 761 mmHg 62%
    04:00 +22°C° 0 mm 6 mps 761 mmHg 63%
    05:00 +22°C° 0 mm 6 mps 762 mmHg 63%
    06:00 +22°C° 0 mm 7 mps 762 mmHg 63%
    07:00 +23°C° 0 mm 7 mps 762 mmHg 59%
    08:00 +23°C° 0 mm 8 mps 762 mmHg 56%
    09:00 +24°C° 0 mm 8 mps 763 mmHg 52%
    10:00 +24°C° 0 mm 8 mps 763 mmHg 49%
    11:00 +26°C° 0 mm 9 mps 763 mmHg 46%
    12:00 +26°C° 0 mm 9 mps 763 mmHg 43%
    13:00 +26°C° 0 mm 9 mps 763 mmHg 42%
    14:00 +26°C° 0 mm 9 mps 763 mmHg 42%
    15:00 +26°C° 0 mm 9 mps 763 mmHg 42%
    16:00 +24°C° 0 mm 9 mps 763 mmHg 43%
    17:00 +24°C° 0 mm 9 mps 762 mmHg 44%
    18:00 +23°C° 0 mm 9 mps 762 mmHg 44%
    19:00 +23°C° 0 mm 9 mps 763 mmHg 49%
    20:00 +22°C° 0 mm 10 mps 763 mmHg 53%
    21:00 +22°C° 0 mm 10 mps 763 mmHg 57%
    22:00 +22°C° 0 mm 9 mps 763 mmHg 57%
    23:00 +22°C° 0 mm 9 mps 763 mmHg 58%

    30 May, Wednesday

    Time Temperature Precipitation Wind Pressure Humidity
    00:00 +21°C° 0 mm 9 mps 763 mmHg 59%
    01:00 +21°C° 0 mm 8 mps 763 mmHg 58%
    02:00 +21°C° 0 mm 8 mps 763 mmHg 57%
    03:00 +21°C° 0 mm 7 mps 763 mmHg 57%
    04:00 +21°C° 0 mm 7 mps 763 mmHg 55%
    05:00 +22°C° 0 mm 7 mps 763 mmHg 54%
    06:00 +22°C° 0 mm 6 mps 763 mmHg 53%
    07:00 +22°C° 0 mm 6 mps 763 mmHg 48%
    08:00 +23°C° 0 mm 6 mps 763 mmHg 44%
    09:00 +24°C° 0 mm 6 mps 763 mmHg 40%
    10:00 +24°C° 0 mm 6 mps 763 mmHg 38%
    11:00 +26°C° 0 mm 6 mps 762 mmHg 35%
    12:00 +26°C° 0 mm 6 mps 762 mmHg 33%
    13:00 +27°C° 0 mm 6 mps 762 mmHg 32%
    14:00 +27°C° 0 mm 6 mps 761 mmHg 31%
    15:00 +27°C° 0 mm 6 mps 761 mmHg 31%
    16:00 +27°C° 0 mm 5 mps 761 mmHg 32%
    17:00 +27°C° 0 mm 5 mps 760 mmHg 33%
    18:00 +26°C° 0 mm 4 mps 760 mmHg 34%
    19:00 +26°C° 0 mm 4 mps 760 mmHg 37%
    20:00 +26°C° 0 mm 3 mps 760 mmHg 39%
    21:00 +25°C° 0 mm 3 mps 760 mmHg 42%
    22:00 +25°C° 0 mm 2 mps 759 mmHg 44%
    23:00 +24°C° 0 mm 1 mps 758 mmHg 46%

    31 May, Thursday

    Time Temperature Precipitation Wind Pressure Humidity
    00:00 +24°C° 0 mm 1 mps 758 mmHg 48%
    01:00 +24°C° 0 mm 1 mps 757 mmHg 45%
    02:00 +24°C° 0 mm 1 mps 757 mmHg 42%
    03:00 +24°C° 0 mm 2 mps 756 mmHg 39%
    04:00 +24°C° 0 mm 2 mps 756 mmHg 38%
    05:00 +25°C° 0 mm 3 mps 756 mmHg 37%
    06:00 +25°C° 0 mm 4 mps 756 mmHg 35%
    07:00 +26°C° 0 mm 4 mps 756 mmHg 34%
    08:00 +27°C° 0 mm 4 mps 756 mmHg 32%
    09:00 +28°C° 0 mm 5 mps 755 mmHg 30%
    10:00 +29°C° 0 mm 5 mps 755 mmHg 30%
    11:00 +30°C° 0 mm 5 mps 754 mmHg 29%
    12:00 +32°C° 0 mm 6 mps 754 mmHg 28%
    13:00 +32°C° 0 mm 6 mps 753 mmHg 29%
    14:00 +32°C° 0 mm 6 mps 753 mmHg 30%
    15:00 +32°C° 0 mm 6 mps 752 mmHg 31%
    16:00 +30°C° 0 mm 6 mps 752 mmHg 34%
    17:00 +30°C° 0 mm 5 mps 752 mmHg 38%
    18:00 +29°C° 0 mm 5 mps 751 mmHg 41%
    19:00 +28°C° 0.1 mm 4 mps 752 mmHg 44%
    20:00 +28°C° 0.1 mm 4 mps 752 mmHg 47%
    21:00 +27°C° 0.1 mm 3 mps 752 mmHg 50%
    22:00 +27°C° 0 mm 3 mps 752 mmHg 52%
    23:00 +27°C° 0 mm 3 mps 751 mmHg 53%
    Show more